| parent folder | - | - |
| - | 1104949.json | 8965 | 2025-05-02 18:10:04 |
| - | 1104949_2808315_SquikBat_seeleesitting-new.png | 615671 | 2025-05-02 18:10:04 |
| - | 1233325.json | 9646 | 2025-05-04 19:56:45 |
| - | 1233325_2808314_SquikBat_henryfilth-lownew.png | 651557 | 2025-05-04 19:56:45 |
| - | 1295582.json | 10462 | 2025-05-05 20:02:35 |
| - | 1295582_1816410_LilShock_vday-niccism.png | 452097 | 2025-05-05 20:02:35 |
| - | 1317557.json | 12219 | 2025-05-06 04:36:01 |
| - | 1317557_1849372_LilShock_nicci-sweltering.png | 529493 | 2025-05-06 04:36:01 |
| - | 1340593.json | 10094 | 2025-05-06 13:22:32 |
| - | 1340593_2808313_SquikBat_miymiy-new.png | 203242 | 2025-05-06 13:22:32 |
| - | 1358845.json | 12064 | 2025-05-06 20:31:20 |
| - | 1358845_1911157_LilShock_lilshockmiymiy-low.png | 175356 | 2025-05-06 20:31:20 |
| - | 1377629.json | 10775 | 2025-05-07 04:01:50 |
| - | 1377629_2808322_SquikBat_smol-tempclothing-new.png | 223812 | 2025-05-07 04:01:50 |
| - | 1949862.json | 20137 | 2025-07-18 20:23:39 |
| - | 1949862_2810000_SquikBat_retaremma-snuggle.png | 251407 | 2025-07-18 20:23:39 |
| - | 1949862_2810001_SquikBat_emma-mmf_.png | 207524 | 2025-07-18 20:23:39 |
| - | 1949862_2810023_SquikBat_screen_shot_2019-06-29_at_5.52.56_pm.png | 291735 | 2025-07-18 20:23:40 |
| - | 1972467.json | 10305 | 2025-07-18 13:28:19 |
| - | 1972467_2844840_SquikBat_retarfur-adult.png | 274209 | 2025-07-18 13:28:19 |
| - | 2068465.json | 8657 | 2025-07-17 13:21:31 |
| - | 2068465_2991336_SquikBat_cirus-low.png | 254847 | 2025-07-17 13:21:31 |
| - | 2119871.json | 8945 | 2025-07-16 19:04:55 |
| - | 2119871_3069437_SquikBat_l_design-low.png | 157003 | 2025-07-16 19:04:55 |
| - | 2186940.json | 9500 | 2025-07-16 00:16:21 |
| - | 2186940_3175197_SquikBat_mothmama-sheet-low.png | 267399 | 2025-07-16 00:16:21 |
| - | 2310030.json | 7902 | 2025-07-14 13:12:52 |
| - | 2310030_3369452_SquikBat_mothmama-sexy-low.png | 155491 | 2025-07-14 13:12:52 |
| - | 2336860.json | 7655 | 2025-07-14 05:25:41 |
| - | 2336860_3411936_SquikBat_ora-low.png | 395585 | 2025-07-14 05:25:41 |
| - | 2373641.json | 10353 | 2025-07-13 20:18:24 |
| - | 2373641_3472282_SquikBat_purrfection-low.png | 419679 | 2025-07-13 20:18:24 |
| - | 2403853.json | 11203 | 2025-07-13 12:08:35 |
| - | 2403853_3520774_SquikBat_jinx-low.png | 331782 | 2025-07-13 12:08:35 |
| - | 2403853_3520779_SquikBat_jinx-noskirt.png | 304978 | 2025-07-13 12:08:35 |
| - | 2404611.json | 13953 | 2025-07-13 11:56:25 |
| - | 2404611_3521950_SquikBat_jinx-dirty-low-text.png | 447052 | 2025-07-13 11:56:25 |
| - | 2404611_3521951_SquikBat_jinx-dirty-low.png | 418460 | 2025-07-13 11:56:25 |
| - | 2445506.json | 8121 | 2025-07-13 02:31:47 |
| - | 2445506_3586463_SquikBat_edgar-low.png | 234359 | 2025-07-13 02:31:47 |
| - | 2492462.json | 9314 | 2025-07-12 15:16:29 |
| - | 2492462_3662370_SquikBat_sexy_anita-low.png | 173245 | 2025-07-12 15:16:29 |
| - | 2537386.json | 9003 | 2025-07-12 02:26:06 |
| - | 2537386_3735977_SquikBat_anita-jacko-low.png | 590198 | 2025-07-12 02:26:06 |
| - | 2591000.json | 10688 | 2025-07-11 13:22:11 |
| - | 2591000_3823395_SquikBat_boofer-low.png | 190157 | 2025-07-11 13:22:11 |
| - | 2680388.json | 10073 | 2025-07-10 15:40:39 |
| - | 2680388_3965563_SquikBat_anitanude-low.png | 193913 | 2025-07-10 15:40:39 |
| - | 2690074.json | 14242 | 2025-07-10 13:05:45 |
| - | 2690074_3981746_SquikBat_spikey-low.png | 227277 | 2025-07-10 13:05:45 |
| - | 2690220.json | 12926 | 2025-07-10 13:03:45 |
| - | 2690220_3981938_SquikBat_booferchoke-low.png | 259568 | 2025-07-10 13:03:45 |
| - | 2753299.json | 9694 | 2025-07-09 20:23:54 |
| - | 2753299_4083331_SquikBat_clownie-low.png | 433879 | 2025-07-09 20:23:54 |
| - | 2799723.json | 8469 | 2025-07-09 09:11:37 |
| - | 2799723_4157373_SquikBat_glitternope-low.png | 216720 | 2025-07-09 09:11:37 |
| - | 2821818.json | 9835 | 2025-07-09 04:03:47 |
| - | 2821818_4192070_SquikBat_kneesocksback-low.png | 585793 | 2025-07-09 04:03:47 |
| - | 3096697.json | 15084 | 2025-07-03 11:52:22 |
| - | 3096697_4640012_SquikBat_scamptease.png | 139621 | 2025-07-03 11:52:22 |
| - | 3096697_4640013_SquikBat_scampnope.png | 154525 | 2025-07-03 11:52:23 |
| - | 3096697_4640014_SquikBat_scampdance.png | 143306 | 2025-07-03 11:52:23 |
| - | 3108989.json | 7603 | 2025-07-03 07:56:24 |
| - | 3108989_4662088_SquikBat_hectottsel-low.png | 212096 | 2025-07-03 07:56:24 |
| - | 3138135.json | 8606 | 2025-07-02 23:07:38 |
| - | 3138135_4713260_SquikBat_scamp-freeride.png | 600632 | 2025-07-02 23:07:38 |
| - | 3177097.json | 7743 | 2025-07-02 10:19:07 |
| - | 3177097_4776362_SquikBat_scribble.png | 387330 | 2025-07-02 10:19:07 |
| - | 3178009.json | 9894 | 2025-07-02 10:01:51 |
| - | 3178009_4778060_SquikBat_scamper-low.png | 159646 | 2025-07-02 10:01:51 |
| - | 3178025.json | 9519 | 2025-07-02 10:01:34 |
| - | 3178025_4778076_SquikBat_scaamp.png | 152810 | 2025-07-02 10:01:34 |
| - | 3264329.json | 12637 | 2025-07-01 07:20:45 |
| - | 3264329_4928794_SquikBat_acornbiggerbodies.png | 410357 | 2025-07-01 07:20:45 |
| - | 3264335.json | 14430 | 2025-07-01 07:20:39 |
| - | 3264335_4928803_SquikBat_acorns_filth.png | 216828 | 2025-07-01 07:20:39 |
| - | 3311358.json | 16199 | 2025-06-30 15:02:30 |
| - | 3311358_5012807_SquikBat_kneedogplay-low.png | 372732 | 2025-06-30 15:02:30 |
| - | 3314389.json | 12792 | 2025-06-30 13:51:40 |
| - | 3314389_5018332_SquikBat_swampdoodle-low.png | 261456 | 2025-06-30 13:51:40 |
| - | 3357693.json | 14213 | 2025-06-29 23:18:18 |
| - | 3357693_5095551_SquikBat_card-done.png | 600104 | 2025-06-29 23:18:18 |
| - | 3389113.json | 8489 | 2025-06-29 12:02:51 |
| - | 3389113_5149930_SquikBat_unicornlove-low.png | 515526 | 2025-06-29 12:02:51 |
| - | 3389125.json | 11130 | 2025-06-29 12:02:26 |
| - | 3389125_5149957_SquikBat_benufilths.png | 208057 | 2025-06-29 12:02:26 |
| - | 3394894.json | 7728 | 2025-06-29 09:29:42 |
| - | 3394894_5159444_SquikBat_nabsona-low.png | 428610 | 2025-06-29 09:29:42 |
| - | 3394933.json | 11384 | 2025-06-29 09:28:55 |
| - | 3394933_5159515_SquikBat_scampernoncon-low.png | 122899 | 2025-06-29 09:28:55 |
| - | 3406973.json | 7995 | 2025-06-29 05:13:30 |
| - | 3406973_5180399_SquikBat_mamaref-frontonlyalt-logo-low.png | 490979 | 2025-06-29 05:13:30 |
| - | 3411643.json | 9928 | 2025-06-29 03:40:53 |
| - | 3411643_5188846_SquikBat_velveteen-low.png | 388578 | 2025-06-29 03:40:53 |
| - | 3427347.json | 10257 | 2025-06-28 22:25:48 |
| - | 3427347_5215226_SquikBat_meday.png | 150732 | 2025-06-28 22:25:48 |
| - | 3438408.json | 10270 | 2025-06-28 18:32:17 |
| - | 3438408_5233873_SquikBat_whoops-low.png | 552659 | 2025-06-28 18:32:17 |
| - | 3447727.json | 8287 | 2025-06-28 14:48:15 |
| - | 3447727_5250046_SquikBat_linger-low.png | 937573 | 2025-06-28 14:48:15 |
| - | 3447734.json | 10339 | 2025-06-28 14:48:05 |
| - | 3447734_5250061_SquikBat_pulsar-low.png | 546898 | 2025-06-28 14:48:05 |
| - | 3569153.json | 12757 | 2025-06-26 19:32:04 |
| - | 3569153_5473863_SquikBat_playthingnude-low.png | 611912 | 2025-06-26 19:32:04 |
| - | 3579421.json | 11886 | 2025-06-26 15:08:01 |
| - | 3579421_5493071_SquikBat_lottafilths.png | 316422 | 2025-06-26 15:08:01 |
| - | 3588915.json | 10180 | 2025-06-26 11:07:24 |
| - | 3588915_5511458_SquikBat_calf-chains-low.png | 427166 | 2025-06-26 11:07:24 |
| - | 3588915_5511459_SquikBat_calf-low.png | 414523 | 2025-06-26 11:07:24 |
| - | 3652653.json | 9529 | 2025-06-30 18:19:08 |
| - | 3652653_5621633_SquikBat_artfightteam.png | 528284 | 2025-06-30 18:19:08 |
| - | 3666071.json | 9015 | 2025-07-18 12:39:54 |
| - | 3666071_5644585_SquikBat_whoops-low.png | 899458 | 2025-07-18 12:39:54 |
| - | 3673105.json | 8627 | 2025-07-28 07:51:27 |
| - | 3673105_5657278_SquikBat_watchersheet-low.png | 534906 | 2025-07-28 07:51:27 |
| - | 3673158.json | 13128 | 2025-07-28 07:49:56 |
| - | 3673158_5657366_SquikBat_watchersqueezein.png | 162563 | 2025-07-28 07:49:56 |
| - | 3673158_5657367_SquikBat_nudewatcher.png | 177056 | 2025-07-28 07:49:56 |
| - | 3676973.json | 8782 | 2025-08-02 20:18:08 |
| - | 3676973_5664198_SquikBat_drowse-low.png | 344969 | 2025-08-02 20:18:08 |
| - | 3682370.json | 7985 | 2025-08-10 11:04:06 |
| - | 3682370_5673606_SquikBat_buoy-low.png | 268208 | 2025-08-10 11:04:06 |
| - | 3703340.json | 9168 | 2025-09-09 11:49:45 |
| - | 3703340_5710952_SquikBat_tripp-low.png | 310894 | 2025-09-09 11:49:45 |
| - | 3721058.json | 8028 | 2025-10-11 21:16:43 |
| - | 3721058_5743302_SquikBat_watcherfilthies-low.png | 509585 | 2025-10-11 21:16:43 |
| - | 3753355.json | 8503 | 2025-11-18 08:49:47 |
| - | 3753355_5800875_SquikBat_fernish-sheet.png | 315274 | 2025-11-18 08:49:47 |
| - | 3779640.json | 9343 | 2025-12-26 04:44:30 |
| - | 3779640_5847001_SquikBat_puant.png | 163531 | 2025-12-26 04:44:30 |
| - | 3798163.json | 9245 | 2026-01-22 06:23:47 |
| - | 3798163_5880562_SquikBat_bigtidbarbra-low.png | 342698 | 2026-01-22 06:23:47 |
| - | 838848.json | 9722 | 2025-04-27 12:35:15 |
| - | 838848_1139195_LilShock_mammoth-low.png | 122404 | 2025-04-27 12:35:15 |
| - | 972641.json | 9741 | 2025-04-30 15:42:21 |
| - | 972641_2808320_SquikBat_sharkdoc-new.png | 349784 | 2025-04-30 15:42:21 |
| - | _pool_info.json | 971 | 2025-12-26 04:44:29 |